Location: Moscow Pond
(43.6842°N, 73.2366°W)
Time: 20:02:20
(UTC+00:00)

COSMOS 2455 - Pass Details

Date: 08 November 2025
Orbit: 898 x 910 km, 67.1° (Epoch: 10 December)

Event Time Altitude Azimuth Distance (km) Brightness Sun altitude
Exits shadow 08:54:32 28° 357° (N) 1,650 4.2 -29.8°
Drops below altitude 10° 08:57:44 10° 19° (NNE) 2,603 5.5 -29.2°
Sets 09:00:26 0° 27° (NNE) 3,549 6.3 -28.7°
